sat.trackr.live / text

‹ back to catalog

STARLINK-31377

NORAD 58938 · 2024-027H

PAYLOAD ACTIVE UNKNOWN

§ Identity

Operator
Country
US
Launch date
2024-02-10
Launch site
AFWTR
Launch vehicle
Mass (kg)
RCS (m²)

Purposes: comms

External: N2YO · Heavens-Above · Gunter

§ Orbital elements

Epoch: 2026-05-25T04:02:18.184992Z

Period
94.11 min
Inclination
53.1626°
Eccentricity
0.0001196
Mean motion
15.30186191 rev/d
Perigee alt
474.4 km
Apogee alt
476.1 km
Semi-major
6,853.4 km
B*
-2.1373e-5
RAAN
314.6638°
Arg perigee
84.9985°
Mean anomaly
275.1152°
Rev number
12,903

§ Raw data

STARLINK-313771 58938U 24027H   26145.16826603 -.00000992  00000+0 -21373-4 0  99992 58938  53.1626 314.6638 0001196  84.9985 275.1152 15.30186191129032

JSON: /api/v1/satellites/58938 · /tle

For live sub-satellite position, see the globe view (requires WebGL).

§ Visibility from observer

Set your observer location to see the next 7 days of passes ≥ 10°. The values pass through the URL so the page stays shareable.

No JS? Fill the form by hand. The geolocation button needs JavaScript.